{"data":{"norad_id":68020,"epoch":"2026-09-20T02:30:17.991360Z","epoch_age_seconds":93843,"freshness":"FRESH","line1":"1 68020U 26040F   26263.10437490  .00018756  00000+0  58157-3 0  9990","line2":"2 68020  97.2869 210.3961 0002157  92.8544 267.2946 15.33458813 31256","mean_motion":15.33458813,"eccentricity":0.0002157,"inclination_deg":97.2869,"raan_deg":210.3961,"arg_perigee_deg":92.8544,"mean_anomaly_deg":267.2946,"bstar":0.00058157,"rev_number":3125,"period_min":93.905358774054,"perigee_km":464.02590406799,"apogee_km":466.97824996581,"semimajor_km":6843.6390770169,"source":"CELESTRAK","updated_at":"2026-09-20T09:00:43.742282Z"}}